[Date Prev][Date Next][Thread Prev][Thread Next] - [Date Index][Thread Index][Author Index]
2 Line ISS Keps 12-6
- Subject: [sarex] 2 Line ISS Keps 12-6
- From: "Dave Larsen PhD" <doc@xxxxxxxxxxx>
- Date: Sat, 6 Dec 2003 02:49:01 -0800
ISS
1 25544U 98067A 03340.20064817 .00025044 00000-0 25142-3 0 8629
2 25544 51.6302 232.3370 0006050 212.9638 231.1356 15.65311002287890
----
Via the sarex mailing list at AMSAT.ORG courtesy of AMSAT-NA.
To unsubscribe, send "unsubscribe sarex" to Majordomo@amsat.org
AMSAT Home